SIRIUSSAT 2

Last updated on Mon Oct 22 2018 01:00:45 GMT+0100 (British Summer Time)

1 43596U 98067PH 18294.53185811 .00007843 00000-0 11966-3 0 9991 2 43596 51.6389 108.6291 0003874 286.4045 73.6520 15.55474806 10390
UTC large
Height (km)
Speed (km/s)
/
Latitude / Longitude
Inclination (degrees)
Orbital Period (minutes)
Azimuth
Elevation
Range (km)
Doppler Factor

Next 0 passes for location: London (51.5072 / 0.1276)

Sorry there are no passes over London.